Wetbulb
60.28 60.21 60.36 60.09 60.11 60.29 60.53 60.78 61.48 61.70 61.74 61.98 62.08 62.01 62.09 62.22 61.15 61.56 60.23 65.61 67.46 73.08 73.43 64.44 64.67 63.86 64.08 63.17 66.84 67.11 57.73 55.28 58.29 60.39 62.15 66.30 65.75 68.92 70.27 66.90 68.50 68.25 67.16 68.87 70.47
59.79 59.88 59.70 58.93 59.47 59.76 59.82 59.96 60.53 60.80 61.04 61.33 61.55 61.94 62.21 62.16 59.96 58.31 69.20 72.26 71.92 72.54 63.80 62.31 61.65 62.58 58.67 61.63 65.33 61.76 55.87 59.37 62.41 62.93 63.66 66.27 66.30 66.70 66.64 66.40 66.08 65.03 67.47 66.96 71.31
59.53 59.46 58.66 58.30 58.61 59.47 59.49 59.36 59.87 60.01 60.14 60.36 61.18 62.06 62.21 61.59 57.58 58.85 73.18 73.75 72.47 70.08 64.63 63.46 63.26 61.77 59.14 62.07 61.30 61.12 57.82 61.69 63.50 64.00 66.91 67.36 66.00 67.67 65.41 63.11 64.34 62.19 62.32 65.25 68.09
59.07 58.72 58.67 58.65 58.89 58.66 59.01 59.47 59.35 59.41 59.67 59.99 60.82 62.04 62.35 59.74 52.08 61.83 72.71 73.36 73.59 66.66 63.30 61.74 61.02 58.91 56.44 57.98 61.46 57.88 62.83 62.31 64.23 65.30 66.18 65.55 66.35 65.69 66.12 66.53 69.33 66.65 64.59 63.32 67.12
57.72 57.63 57.96 58.07 58.32 58.16 58.48 58.87 58.90 58.92 59.20 60.02 61.09 62.49 59.39 56.02 58.25 65.45 75.37 73.56 67.98 64.19 60.78 60.30 59.44 57.63 55.52 57.24 60.79 58.56 61.39 62.49 64.07 63.80 63.24 65.17 65.69 65.80 65.77 68.90 69.69 68.10 66.24 66.89 68.86
57.26 57.01 56.90 57.19 57.64 58.25 58.41 58.55 58.46 58.46 59.05 60.31 61.91 62.42 58.36 52.90 64.18 65.88 69.74 66.98 64.59 61.79 60.35 61.86 60.31 59.97 57.53 57.35 56.64 61.22 61.00 60.26 60.92 61.14 62.62 62.67 64.10 63.41 65.77 67.86 69.50 69.10 67.74 68.50 68.93
56.79 56.79 56.85 56.91 57.48 57.85 57.94 57.93 57.86 58.04 59.01 60.92 62.81 62.25 57.25 56.84 64.54 62.79 63.01 62.19 61.95 60.65 60.19 63.08 61.96 58.93 58.26 55.88 60.81 59.57 56.77 58.21 58.94 59.06 60.20 61.78 60.57 61.35 64.37 65.43 66.22 67.64 67.69 69.11 68.01
56.67 56.85 56.82 57.02 57.24 57.29 57.38 57.36 57.30 58.43 60.18 62.41 63.31 58.88 53.97 63.41 63.41 63.06 61.75 61.83 62.10 62.60 61.95 62.49 62.24 59.21 57.01 58.73 57.91 56.30 56.78 54.62 58.16 58.99 60.34 58.15 52.40 61.76 64.15 64.29 63.54 65.80 66.48 67.60 67.11
56.53 56.46 56.59 56.47 57.13 56.92 56.58 56.63 57.65 60.07 62.15 63.70 58.53 55.84 52.27 64.31 58.96 60.35 60.17 60.60 60.82 61.33 61.83 64.96 59.59 56.37 57.45 53.05 50.50 53.94 51.18 53.96 56.71 59.30 57.84 55.32 51.71 62.57 64.62 64.13 62.69 64.72 65.39 66.67 66.37
56.30 56.36 56.18 55.98 56.58 56.24 55.70 55.86 58.62 58.55 61.70 63.09 61.57 53.38 57.67 56.27 58.58 59.37 60.41 61.60 58.62 58.99 58.77 57.29 54.90 51.50 52.44 49.71 45.35 49.87 50.38 54.11 52.29 55.82 56.40 54.64 53.62 56.72 62.04 63.82 62.95 63.64 64.57 65.42 66.19
56.28 56.23 55.93 55.80 56.25 55.75 54.76 56.90 54.26 53.44 56.43 52.39 52.56 56.71 56.46 59.06 59.36 58.12 60.74 59.28 57.75 54.99 50.64 54.26 48.78 47.31 51.19 52.31 52.31 51.04 49.85 50.10 53.00 56.72 55.40 53.77 53.05 54.90 57.50 61.52 61.69 60.65 62.24 64.94 66.84
55.82 55.72 55.64 56.06 55.84 55.45 52.94 55.09 60.07 58.51 52.96 57.71 56.39 56.28 57.07 56.41 54.30 56.34 57.96 55.26 53.89 50.98 53.39 50.86 47.69 53.77 55.84 53.69 51.93 50.62 49.22 49.30 53.18 57.01 53.78 51.94 52.18 55.07 57.01 57.12 59.57 61.57 60.41 65.01 66.12
55.18 55.37 55.18 55.89 55.15 52.39 53.96 54.89 59.98 59.35 52.84 57.51 56.61 54.71 53.93 54.13 53.35 54.10 55.89 55.60 53.26 51.54 51.95 48.63 51.80 55.79 54.27 51.01 50.64 48.56 46.59 49.05 49.72 54.38 54.11 52.34 49.70 53.03 58.82 58.61 58.56 59.81 62.02 62.40 66.00
54.87 55.09 55.34 55.20 50.32 56.40 54.20 57.16 57.64 58.19 48.82 54.15 52.69 54.12 54.58 54.63 51.32 57.82 57.67 55.68 53.50 51.12 52.35 50.62 54.40 53.59 50.46 49.78 49.37 45.81 51.53 52.27 52.47 48.75 44.13 50.72 42.89 49.72 54.25 55.57 57.44 56.90 57.84 59.53 66.19
54.56 54.63 55.15 53.73 51.95 58.39 60.93 60.81 60.37 58.07 42.79 55.10 54.49 59.09 56.48 52.41 53.28 53.56 58.72 54.71 50.85 52.58 50.24 49.20 51.34 50.72 49.47 50.52 51.78 48.49 53.37 53.01 52.61 48.47 45.56 48.69 44.13 50.27 54.03 52.40 55.41 58.29 59.74 59.22 66.46
54.23 54.29 54.72 53.32 53.30 57.56 62.59 63.13 60.02 48.40 44.33 53.48 56.30 53.43 51.86 52.59 53.86 55.74 54.66 54.19 55.07 52.33 52.56 51.66 55.36 52.63 51.71 54.03 53.24 54.00 51.66 50.91 48.96 45.99 40.81 46.47 47.64 48.81 51.01 53.76 54.60 60.34 61.32 62.19 62.91
53.39 53.22 53.33 57.96 59.36 63.75 64.32 59.79 47.82 44.42 56.06 52.71 52.41 54.39 52.30 49.58 51.56 53.77 52.41 48.83 46.65 44.35 45.00 50.62 51.86 53.94 54.02 49.32 52.30 50.42 45.31 39.63 39.67 39.68 39.54 49.78 48.09 49.00 52.96 55.38 56.65 59.65 61.16 62.15 63.62
52.58 52.04 53.35 55.90 59.99 58.81 61.63 53.47 45.43 53.58 52.02 55.76 54.58 52.98 50.31 51.57 50.03 51.70 51.80 48.73 50.75 48.75 46.74 44.99 46.08 52.57 54.19 51.10 49.05 49.22 46.17 41.28 36.62 38.24 43.25 47.31 45.10 48.97 56.04 56.29 57.52 61.44 62.47 63.34 61.94
51.58 54.69 57.15 61.16 59.38 59.73 57.04 47.85 49.71 54.39 57.05 55.71 53.19 50.50 49.39 51.98 52.08 51.71 51.24 50.33 51.98 50.95 44.79 46.30 48.92 55.90 55.53 54.90 51.90 48.59 44.98 48.16 42.63 43.30 41.36 46.61 51.46 54.13 56.69 57.58 59.25 59.77 62.58 63.72 62.76
57.93 62.20 62.83 65.29 63.29 61.09 54.71 48.85 53.87 57.87 58.00 55.94 51.43 52.45 49.05 50.69 50.97 50.35 50.35 53.67 53.36 56.03 54.36 49.53 45.07 52.40 54.72 54.57 53.57 50.50 52.13 44.68 43.69 37.82 37.47 43.21 47.71 46.59 51.60 54.22 58.59 60.52 61.59 62.90 64.50
59.05 59.35 65.55 66.87 63.94 57.68 50.65 52.67 56.29 58.46 57.82 55.34 53.47 53.32 54.00 52.81 52.80 50.93 50.65 55.51 57.40 56.15 55.40 50.64 49.11 49.34 53.33 49.53 48.82 50.60 48.19 48.40 46.99 45.76 39.97 38.43 43.78 52.10 56.55 59.13 59.92 61.33 62.84 62.66 63.46
60.54 57.68 63.63 63.66 54.91 55.36 52.43 55.38 55.21 57.28 57.53 55.67 55.93 55.59 54.02 54.88 53.92 53.80 52.64 54.72 58.04 56.77 52.28 51.83 47.47 43.95 48.34 53.49 54.56 51.35 46.75 46.96 46.27 43.48 46.39 45.94 43.74 58.61 57.74 58.84 60.56 61.57 62.46 64.64 64.76
57.30 61.22 63.46 61.52 50.44 52.03 55.38 55.44 57.27 55.18 55.10 55.44 54.65 55.98 55.63 53.28 51.09 53.65 54.80 57.21 57.87 56.16 51.36 51.38 47.37 41.46 44.17 47.92 49.33 48.20 50.13 48.20 47.81 47.48 44.04 40.87 44.96 57.31 57.42 56.62 56.87 57.50 60.63 63.47 64.16
57.47 57.09 60.04 58.94 57.13 54.60 55.06 55.70 54.29 56.05 54.85 55.52 55.09 55.56 53.89 52.11 52.84 51.76 52.81 56.61 57.35 55.82 60.98 55.77 46.33 43.87 39.77 43.46 47.75 46.09 49.10 49.35 44.70 40.65 42.19 43.21 49.52 53.76 54.27 56.45 57.59 56.59 57.62 62.05 63.73
59.37 57.74 58.81 55.05 55.51 55.50 56.54 56.71 55.48 53.75 55.88 56.23 54.18 54.29 52.55 48.69 51.68 52.05 53.69 54.68 56.35 59.28 54.21 50.11 43.52 44.94 47.21 49.32 49.68 49.03 49.23 49.41 46.31 45.37 40.77 44.91 45.71 50.51 55.80 55.03 55.18 56.26 61.12 63.32 62.83
55.31 54.81 57.21 54.81 56.78 58.30 54.01 55.18 54.88 56.06 56.69 54.75 53.98 55.45 55.31 50.81 51.20 50.11 51.75 51.00 51.21 53.53 51.21 51.39 45.28 46.71 45.41 50.24 49.75 48.31 49.78 49.99 49.51 49.17 47.54 47.56 47.40 56.12 57.52 59.63 60.47 61.12 62.11 61.28 61.65
57.54 58.70 56.83 53.82 54.45 54.09 54.36 56.68 55.92 57.19 57.07 56.90 55.34 54.05 53.21 53.75 54.96 53.88 53.36 52.85 51.66 48.33 47.36 47.30 45.18 44.17 40.17 47.86 47.86 43.51 47.73 49.42 49.99 50.08 47.74 45.17 51.45 56.58 56.31 58.54 58.88 61.17 60.71 60.89 61.30
MSLP
1015.61 1015.36 1015.09 1014.85 1014.59 1014.32 1014.07 1013.78 1013.39 1013.09 1012.80 1012.43 1012.12 1011.85 1011.52 1010.91 1009.73 1009.05 1007.99 1006.11 1005.70 1005.21 1005.02 1004.17 1003.34 1002.39 1002.23 1002.61 1002.74 1003.46 1005.31 1005.60 1004.77 1004.17 1003.79 1003.40 1003.55 1003.79 1004.34 1006.14 1008.01 1009.31 1009.54 1010.47 1009.25
1015.57 1015.33 1015.09 1014.84 1014.55 1014.27 1014.00 1013.69 1013.33 1013.02 1012.70 1012.34 1011.97 1011.69 1011.31 1010.94 1010.02 1008.07 1005.96 1005.59 1005.44 1005.23 1004.61 1004.42 1003.44 1002.54 1002.47 1002.57 1002.54 1003.53 1004.48 1004.10 1003.71 1003.64 1003.53 1003.28 1003.42 1003.66 1004.45 1005.91 1007.98 1009.88 1008.97 1007.78 1009.12
1015.54 1015.32 1015.09 1014.80 1014.50 1014.22 1013.96 1013.61 1013.26 1012.95 1012.58 1012.21 1011.80 1011.53 1011.11 1010.91 1009.73 1006.33 1005.32 1005.47 1005.36 1005.05 1004.56 1004.31 1003.68 1003.10 1002.55 1001.42 1002.27 1002.55 1003.23 1003.20 1003.36 1003.43 1003.29 1003.13 1003.03 1003.26 1004.85 1005.50 1006.71 1009.10 1009.83 1009.24 1009.51
1015.52 1015.30 1015.08 1014.73 1014.38 1014.11 1013.88 1013.57 1013.18 1012.84 1012.49 1012.11 1011.71 1011.37 1010.84 1010.49 1008.34 1005.54 1005.31 1005.28 1005.26 1005.01 1004.82 1004.42 1003.68 1003.06 1002.25 1001.84 1001.57 1002.32 1002.47 1002.54 1002.81 1002.82 1002.87 1003.04 1003.15 1003.52 1003.99 1004.74 1005.59 1007.84 1008.67 1009.16 1009.32
1015.56 1015.29 1015.02 1014.70 1014.34 1014.04 1013.74 1013.44 1013.11 1012.72 1012.35 1012.01 1011.68 1011.37 1010.31 1009.51 1006.63 1005.00 1005.15 1005.29 1005.16 1005.01 1004.68 1004.24 1003.73 1002.57 1002.22 1001.79 1001.58 1001.83 1002.01 1002.10 1002.01 1002.18 1002.50 1002.71 1003.23 1003.52 1003.82 1004.36 1005.64 1006.97 1008.21 1008.61 1008.90
1015.44 1015.14 1014.88 1014.57 1014.23 1013.89 1013.56 1013.22 1012.93 1012.59 1012.23 1011.93 1011.63 1011.37 1010.79 1008.27 1004.41 1004.22 1004.71 1005.06 1004.87 1004.60 1004.05 1003.75 1003.25 1002.63 1002.37 1002.22 1001.83 1001.95 1001.82 1001.75 1001.73 1001.90 1002.05 1002.64 1003.39 1003.49 1003.87 1003.81 1005.22 1006.15 1006.90 1007.52 1007.56
1015.24 1014.95 1014.63 1014.36 1014.05 1013.71 1013.38 1013.04 1012.71 1012.39 1012.07 1011.81 1011.58 1011.03 1009.59 1006.51 1004.10 1003.97 1004.16 1004.22 1004.17 1004.07 1004.10 1003.64 1002.74 1003.18 1003.13 1002.77 1001.91 1001.95 1002.04 1001.79 1001.76 1001.76 1001.97 1002.30 1003.20 1003.34 1003.42 1003.89 1004.40 1004.97 1005.67 1005.73 1005.91
1014.95 1014.66 1014.39 1014.14 1013.83 1013.50 1013.18 1012.82 1012.43 1012.06 1011.75 1011.54 1011.42 1010.77 1008.43 1004.73 1004.40 1004.49 1004.00 1003.83 1003.67 1003.57 1003.62 1003.45 1003.26 1003.54 1003.45 1002.79 1002.38 1002.29 1002.14 1002.24 1001.74 1001.60 1001.55 1002.17 1002.99 1002.91 1002.99 1003.65 1004.02 1003.93 1004.28 1004.78 1005.04
1014.67 1014.41 1014.13 1013.87 1013.60 1013.26 1012.89 1012.51 1012.00 1011.58 1011.35 1011.30 1011.18 1010.25 1007.00 1004.02 1004.09 1003.71 1003.72 1003.76 1003.65 1003.67 1003.58 1003.41 1003.77 1003.99 1003.63 1003.49 1002.95 1002.33 1003.02 1003.14 1002.01 1001.32 1001.34 1001.96 1002.59 1002.51 1002.74 1003.14 1003.21 1003.22 1003.50 1004.11 1005.08
1014.37 1014.08 1013.85 1013.63 1013.40 1013.06 1012.52 1012.14 1011.46 1011.38 1010.67 1010.45 1009.83 1009.21 1005.93 1003.85 1003.36 1003.41 1003.43 1003.38 1003.60 1003.68 1003.86 1003.87 1004.17 1004.14 1003.76 1003.71 1003.43 1002.64 1002.70 1002.40 1001.98 1001.31 1001.16 1001.65 1002.01 1001.62 1001.85 1002.37 1002.40 1002.59 1002.91 1003.99 1004.83
1014.08 1013.78 1013.56 1013.42 1013.24 1013.05 1012.25 1011.35 1011.48 1010.91 1009.74 1007.94 1006.78 1005.53 1003.70 1003.05 1002.96 1003.18 1003.19 1003.44 1003.58 1003.80 1004.14 1003.89 1004.52 1004.13 1003.31 1002.94 1002.56 1002.42 1002.61 1002.44 1001.79 1001.15 1001.18 1001.51 1001.63 1001.35 1000.91 1001.39 1001.61 1002.00 1002.37 1003.22 1003.51
1013.82 1013.52 1013.32 1013.18 1013.10 1013.03 1012.99 1011.20 1007.73 1007.12 1006.96 1006.27 1005.42 1004.81 1003.52 1002.97 1002.79 1002.85 1002.84 1003.64 1003.97 1004.22 1004.01 1004.08 1003.74 1002.89 1002.38 1002.08 1002.16 1002.33 1002.52 1002.56 1001.91 1001.22 1001.33 1001.56 1001.59 1000.84 1000.43 1000.37 1000.66 1001.18 1001.63 1002.08 1002.95
1013.52 1013.23 1013.11 1013.04 1012.91 1012.93 1011.35 1009.07 1006.84 1006.51 1006.05 1004.33 1004.02 1003.75 1002.81 1002.73 1002.59 1002.42 1002.79 1003.40 1003.79 1004.06 1003.77 1003.58 1002.75 1002.07 1001.73 1001.95 1002.30 1002.37 1002.40 1002.20 1001.97 1001.72 1001.64 1001.93 1001.71 1000.77 999.83 999.60 999.89 1000.09 1000.25 1000.75 1001.66
1013.23 1012.96 1012.90 1012.91 1013.25 1010.59 1009.51 1006.84 1006.89 1006.94 1006.47 1003.71 1003.30 1002.38 1002.01 1002.26 1002.12 1001.61 1002.21 1003.04 1003.45 1003.50 1003.27 1002.80 1001.96 1001.59 1001.44 1001.71 1001.92 1002.28 1001.99 1001.95 1002.04 1002.53 1002.95 1002.61 1002.70 1001.33 1000.29 999.86 999.76 999.57 999.91 1000.13 1001.00
1013.02 1012.77 1012.73 1013.03 1012.44 1009.84 1006.55 1005.78 1005.89 1006.32 1005.26 1002.45 1001.77 1000.74 1001.33 1001.97 1001.16 1001.16 1001.62 1002.38 1002.98 1003.03 1002.97 1002.60 1001.82 1001.32 1001.29 1001.44 1001.53 1001.91 1001.90 1002.35 1002.61 1003.15 1003.52 1002.73 1003.03 1000.86 1000.17 1000.07 999.89 999.79 999.39 999.42 1000.09
1012.82 1012.56 1012.65 1012.61 1011.90 1007.94 1005.98 1005.37 1005.59 1005.72 1003.02 1001.24 1000.94 1001.01 1001.49 1001.81 1001.59 1001.32 1001.78 1002.11 1002.46 1002.96 1002.69 1002.26 1001.33 1001.15 1000.96 1001.06 1001.29 1001.62 1002.15 1002.72 1003.09 1003.95 1004.37 1003.40 1002.90 1002.93 1000.81 999.96 999.52 999.51 999.39 999.51 999.89
1012.44 1012.15 1012.38 1010.73 1008.42 1006.59 1006.08 1005.77 1005.77 1004.17 1000.74 1000.60 1000.93 1000.98 1001.60 1001.91 1001.82 1001.69 1001.95 1002.43 1002.99 1003.16 1003.13 1002.17 1001.31 1000.74 1000.69 1001.03 1001.29 1001.79 1002.58 1003.59 1004.33 1004.80 1004.73 1002.94 1002.62 1002.10 1000.40 999.78 999.42 999.66 999.73 999.73 999.95
1012.19 1011.89 1010.85 1009.78 1007.61 1007.41 1006.49 1006.22 1005.19 1002.18 1000.66 999.68 1000.06 1000.66 1001.42 1001.44 1001.47 1001.44 1001.78 1002.37 1002.34 1002.59 1002.73 1002.05 1000.82 999.58 1000.24 1000.86 1001.14 1001.59 1002.55 1003.72 1004.60 1005.06 1004.36 1003.34 1003.42 1002.00 1000.49 999.79 999.55 999.62 999.91 1000.03 1000.19
1011.80 1011.18 1009.92 1007.49 1007.34 1007.64 1007.40 1006.21 1003.70 1001.64 1000.21 999.37 999.58 1000.21 1000.76 1000.74 1000.77 1001.18 1001.30 1001.48 1001.31 1001.63 1002.30 1001.87 1001.15 1000.63 1000.19 1000.38 1000.83 1001.57 1002.35 1002.86 1004.12 1003.95 1004.30 1003.56 1003.21 1001.83 1000.74 1000.48 1000.56 1000.64 1001.16 1001.26 1000.80
1011.01 1009.30 1007.19 1005.89 1006.17 1006.71 1006.75 1005.67 1003.41 1001.41 1000.26 999.91 999.84 999.70 1000.11 1000.09 1000.47 1000.73 1000.82 1000.43 1000.39 1000.81 1001.27 1002.05 1002.32 1001.42 1001.03 1000.41 1000.82 1001.37 1002.02 1002.99 1004.20 1005.44 1005.27 1003.96 1003.14 1002.51 1002.08 1002.13 1002.09 1002.44 1002.57 1002.32 1002.00
1010.45 1008.18 1004.41 1004.42 1005.65 1006.21 1005.95 1004.29 1002.42 1000.89 1000.48 1000.39 1000.20 1000.35 1000.19 999.97 1000.02 1000.35 1000.52 1000.89 1000.62 1001.10 1001.48 1002.42 1003.14 1003.12 1002.45 1001.97 1002.02 1002.16 1002.57 1003.28 1004.15 1005.20 1005.87 1005.31 1004.74 1003.10 1004.02 1003.87 1003.89 1004.08 1004.39 1003.71 1003.00
1009.76 1007.06 1004.04 1004.31 1005.38 1005.32 1004.89 1003.54 1001.87 1000.84 1000.60 1000.53 1000.57 1000.62 1000.72 1000.70 1000.60 1000.27 1001.35 1001.21 1001.39 1001.79 1002.99 1003.84 1004.03 1004.33 1003.75 1002.67 1002.30 1002.45 1002.84 1003.29 1004.47 1005.10 1004.99 1005.13 1004.80 1004.72 1005.06 1005.51 1005.32 1005.88 1006.36 1005.45 1004.09
1010.54 1006.76 1003.90 1004.04 1004.63 1004.52 1003.64 1002.66 1001.68 1001.28 1001.03 1000.90 1000.94 1001.34 1001.21 1001.69 1001.88 1001.70 1002.15 1002.17 1002.28 1003.10 1004.08 1004.65 1005.21 1005.63 1004.97 1004.27 1003.00 1003.69 1003.50 1003.74 1004.19 1004.39 1005.42 1005.98 1005.92 1005.53 1005.66 1006.49 1006.02 1006.13 1006.20 1005.48 1005.31
1010.98 1007.02 1004.67 1004.30 1004.27 1004.20 1003.58 1002.19 1001.46 1001.40 1001.62 1001.64 1001.88 1002.01 1002.22 1002.59 1002.58 1002.64 1002.43 1002.67 1002.99 1003.92 1004.67 1005.13 1006.04 1006.53 1006.54 1006.09 1005.31 1004.87 1004.39 1004.06 1004.54 1005.17 1005.41 1005.48 1005.71 1005.81 1005.76 1005.81 1006.03 1005.49 1005.44 1005.72 1005.38
1010.09 1007.51 1006.72 1005.12 1004.61 1004.10 1003.18 1002.35 1001.88 1001.76 1001.85 1002.24 1002.78 1003.03 1003.40 1003.83 1003.91 1004.05 1003.85 1003.77 1003.78 1004.54 1004.89 1005.68 1006.68 1006.87 1006.84 1006.39 1005.85 1005.30 1005.02 1004.76 1004.73 1004.77 1005.26 1005.23 1005.24 1005.18 1004.91 1004.66 1004.69 1005.53 1005.63 1005.86 1005.72
1010.41 1009.42 1007.84 1006.69 1004.97 1004.02 1003.43 1003.09 1002.83 1002.34 1002.61 1003.00 1003.73 1004.05 1004.34 1005.38 1005.79 1005.78 1005.62 1005.56 1005.35 1005.55 1005.90 1006.09 1006.73 1007.12 1007.33 1006.82 1006.42 1005.95 1005.32 1004.81 1004.67 1004.60 1004.57 1004.79 1005.64 1005.31 1005.74 1006.06 1006.47 1006.82 1006.36 1006.30 1006.44
1011.67 1010.43 1009.38 1007.39 1005.96 1004.90 1004.52 1003.94 1003.99 1003.82 1003.85 1003.98 1004.63 1005.15 1005.65 1006.43 1006.47 1006.40 1006.22 1006.05 1005.99 1006.09 1006.35 1006.75 1007.19 1007.95 1007.97 1007.65 1007.18 1006.61 1005.67 1005.18 1004.83 1004.65 1004.82 1005.67 1006.74 1006.53 1007.03 1007.28 1007.20 1007.29 1007.10 1007.33 1007.47
Wind_Speed
11 11 11 11 11 12 12 13 13 13 13 14 14 14 14 16 20 4 5 5 5 7 7 11 17 20 15 12 5 3 4 3 2 3 3 5 4 4 9 20 22 7 10 4 9
12 12 11 12 12 12 12 13 14 14 14 14 14 14 14 14 5 8 6 3 4 7 8 11 19 20 5 4 5 4 5 1 6 8 6 6 4 4 4 12 16 14 16 16 13
12 12 12 12 12 12 12 13 14 14 15 15 15 14 14 11 4 6 5 5 5 9 7 12 16 19 19 4 6 4 4 5 7 3 3 2 5 9 12 2 6 20 18 16 12
13 12 12 12 13 13 13 14 14 15 15 15 15 15 16 4 4 3 6 5 6 7 7 11 12 14 6 4 4 6 2 7 4 4 3 2 4 5 7 3 18 24 21 15 15
13 13 13 13 13 13 14 14 14 15 16 15 15 13 6 3 9 7 8 6 4 4 9 14 17 7 9 6 6 8 2 7 8 6 6 3 3 2 2 12 21 21 20 18 14
13 13 13 13 13 13 14 13 14 15 16 15 13 13 3 6 4 12 10 8 8 9 11 13 8 11 8 12 4 2 7 4 7 5 3 6 1 6 6 11 20 22 20 18 16
14 14 14 14 14 14 14 14 16 16 15 13 10 5 5 14 9 3 6 7 8 9 11 11 6 9 10 9 5 4 8 8 5 5 4 5 3 4 9 4 11 19 20 22 14
14 14 14 14 14 14 14 15 17 16 14 11 6 4 8 10 10 17 7 8 8 10 7 6 10 8 6 10 11 7 7 3 7 8 8 8 6 10 9 5 10 14 12 14 11
14 13 14 14 13 13 14 16 18 15 11 10 3 4 9 4 6 7 7 9 8 6 8 8 2 7 11 7 7 8 3 5 8 8 4 4 10 15 10 10 11 13 13 14 9
14 13 13 13 12 12 16 13 10 14 5 7 8 4 8 12 9 8 11 10 6 8 7 6 4 6 7 3 5 6 1 4 6 3 5 1 10 8 14 15 14 12 12 13 12
14 13 13 12 10 10 11 1 2 2 6 11 10 6 2 9 8 8 10 7 7 3 7 9 3 8 14 9 6 5 6 6 8 9 3 3 8 12 10 16 11 9 10 14 23
14 12 11 9 7 6 4 5 9 8 7 20 20 13 18 6 4 5 4 6 7 8 9 6 9 16 14 8 9 7 2 8 8 9 4 7 11 15 12 8 10 13 10 16 18
14 11 9 6 5 3 6 11 10 16 3 7 15 9 10 4 9 10 10 9 8 8 11 8 13 12 4 3 7 8 6 8 8 5 7 7 10 9 3 8 7 9 12 10 17
13 9 6 1 1 4 6 10 16 11 4 2 7 8 7 6 7 13 13 9 7 10 10 7 10 9 5 6 5 5 11 11 8 7 5 3 11 14 6 8 7 7 8 9 16
13 8 5 8 7 5 6 12 12 4 4 14 9 6 9 10 4 4 13 7 9 11 3 11 10 6 5 9 7 7 8 7 7 5 5 13 1 9 7 3 6 6 6 2 19
15 7 5 5 4 12 13 5 1 1 7 9 7 7 6 8 10 6 4 4 6 10 10 10 10 5 4 6 6 7 5 9 7 1 3 11 3 8 3 8 3 6 6 6 12
15 6 7 7 5 10 11 2 1 4 8 11 8 11 9 9 11 9 9 6 5 4 7 13 18 12 6 4 7 7 3 5 6 2 6 10 4 6 12 5 6 9 5 6 9
13 3 11 8 10 11 6 1 5 10 10 8 11 11 9 10 11 9 7 6 10 9 8 7 13 19 8 7 7 4 6 6 6 4 5 4 7 4 3 6 7 10 9 6 4
9 4 5 7 13 5 2 3 5 7 10 5 10 10 9 12 9 9 11 11 11 12 5 4 7 6 9 6 4 5 5 7 4 6 3 5 7 6 6 8 10 11 14 13 4
3 3 7 9 11 5 1 6 8 11 9 12 6 7 8 10 8 8 6 9 8 9 8 5 5 8 11 1 6 7 7 7 5 3 6 7 3 3 2 5 12 16 13 12 13
3 3 6 13 10 2 4 7 13 7 8 6 11 10 14 4 7 7 6 4 11 7 8 5 3 10 9 6 3 7 5 4 3 5 3 3 5 2 12 15 17 17 14 11 10
5 3 7 8 3 4 7 8 3 9 3 5 6 6 7 10 9 5 9 7 8 8 5 5 0 3 9 12 9 7 4 5 5 7 5 3 5 13 18 15 14 14 15 10 10
4 5 6 7 4 7 9 16 5 7 4 4 3 9 8 7 6 8 7 5 7 6 3 4 5 5 11 12 5 8 13 10 10 4 1 3 1 9 14 6 4 6 6 5 7
4 4 2 3 5 10 13 14 4 5 3 7 8 8 8 7 8 5 5 6 7 6 7 6 2 4 6 7 9 9 13 13 5 3 5 4 3 5 3 6 8 7 7 5 6
4 4 3 2 5 10 10 6 9 4 5 6 5 7 5 5 7 9 12 10 7 8 4 5 2 5 8 9 11 14 14 14 11 8 4 9 9 7 13 9 2 5 4 6 9
4 5 7 8 11 5 4 5 8 7 6 7 8 12 12 9 7 7 9 8 4 5 6 4 3 3 5 8 10 12 12 12 10 9 8 8 8 7 11 7 6 4 2 9 9
5 5 3 6 8 6 7 7 12 8 7 10 11 7 11 10 8 8 8 8 7 6 5 4 3 4 5 7 11 8 9 12 13 10 3 6 5 9 8 9 5 2 7 7 5
Wind_Direction
343 344 344 342 339 336 335 331 329 329 327 323 323 324 326 322 309 189 262 241 226 327 294 280 285 266 273 242 99 82 75 291 156 345 62 146 87 18 119 92 68 20 103 328 311
342 343 345 341 334 334 332 328 326 328 325 324 322 327 325 333 289 261 252 224 297 316 300 308 312 319 283 151 127 96 108 13 55 36 359 67 154 196 126 122 119 97 111 165 229
341 341 340 334 329 329 328 324 323 323 322 322 322 327 318 322 286 223 171 223 276 279 278 298 294 294 293 131 157 137 96 62 71 22 356 300 339 127 184 92 169 154 166 196 196
338 337 334 330 326 325 323 321 320 320 319 319 322 325 315 262 340 104 185 204 249 288 308 295 289 287 280 219 120 112 252 114 110 156 241 95 306 113 118 120 137 154 174 183 194
334 332 329 325 323 321 319 318 317 316 316 318 322 329 337 249 249 166 183 214 236 267 261 277 287 330 351 353 74 57 321 141 166 174 140 161 85 34 347 118 131 147 165 186 209
329 326 322 321 319 317 316 315 314 313 312 314 319 316 243 266 198 167 181 176 227 223 264 271 295 329 321 339 51 335 271 254 147 126 168 112 224 93 299 135 144 159 174 192 204
324 320 318 317 315 314 314 313 311 308 305 307 314 303 268 239 308 315 189 227 204 235 249 276 358 4 325 313 19 275 279 254 150 161 139 142 313 239 204 216 162 166 180 192 175
320 317 315 313 312 313 311 308 305 302 299 297 295 279 254 274 239 267 271 269 218 244 253 332 10 334 290 294 301 241 289 42 213 181 190 140 247 255 221 203 223 169 175 169 177
318 315 311 310 310 309 308 303 295 291 285 275 254 226 262 268 215 220 258 249 206 268 291 282 21 263 293 279 300 258 105 357 296 180 142 87 293 220 213 212 221 177 179 169 165
319 313 309 307 309 314 309 281 289 313 224 229 256 287 264 230 196 209 238 257 240 205 245 230 222 248 278 262 256 30 84 203 254 203 117 127 269 283 205 208 208 180 184 162 145
318 311 305 304 308 323 330 250 276 265 251 201 199 236 312 220 219 195 205 220 286 268 232 239 193 247 258 256 285 52 2 312 306 300 155 222 272 273 258 192 188 194 183 170 161
317 308 301 297 300 325 289 248 257 340 255 222 253 252 263 324 169 191 204 181 222 244 249 272 237 239 257 290 325 330 273 289 289 285 53 313 283 276 264 196 172 191 198 184 173
321 307 295 289 333 279 232 239 293 323 287 243 207 236 228 178 265 207 176 204 244 230 248 225 254 275 228 327 310 318 289 260 242 307 349 318 304 299 322 134 170 188 199 174 176
326 306 275 344 297 223 230 241 243 257 301 183 172 239 210 201 256 240 186 175 226 247 261 250 263 275 332 332 303 260 282 314 328 27 297 297 292 305 202 162 181 225 215 197 170
331 305 253 217 317 254 274 214 221 206 308 148 180 191 175 189 191 240 170 183 251 269 303 250 276 248 236 240 257 265 315 320 316 303 353 295 331 277 126 134 183 177 95 314 157
335 290 214 194 223 246 293 285 10 277 248 173 130 174 175 214 267 130 145 188 228 258 288 276 285 268 222 306 333 320 1 300 286 47 338 275 104 356 275 185 170 111 114 36 138
331 268 198 304 232 325 267 304 279 237 163 145 169 167 205 198 246 177 175 196 206 254 261 266 257 249 208 223 271 263 263 314 332 33 211 254 320 186 254 141 127 160 125 86 127
332 177 229 242 284 329 306 249 255 272 249 190 158 152 184 204 219 221 163 222 219 226 264 269 313 189 192 189 215 293 198 177 283 266 237 351 334 295 353 96 43 92 150 159 141
320 200 251 239 227 238 294 220 250 313 4 337 150 151 202 218 216 201 187 214 218 202 202 3 327 351 135 197 108 289 340 259 319 295 9 154 186 322 28 41 85 70 47 16 24
257 258 233 223 182 233 240 245 273 272 14 346 344 174 204 213 186 190 198 223 245 109 99 343 344 342 326 120 219 185 228 1 346 347 317 320 343 240 61 39 61 45 40 17 9
245 247 232 171 177 238 232 256 289 309 23 321 341 329 332 273 189 217 242 21 21 103 89 44 54 305 344 301 331 338 313 257 254 125 162 300 293 143 67 55 60 40 22 8 354
299 274 149 155 171 212 237 247 279 339 25 276 321 306 332 2 1 50 63 64 24 46 41 26 272 297 271 289 304 307 344 355 132 277 201 185 308 95 67 47 55 55 0 336 350
280 268 168 179 226 242 255 253 249 304 21 296 269 10 9 17 0 23 90 95 57 65 75 14 328 351 339 341 343 20 331 334 329 51 342 83 302 78 91 42 50 44 337 348 343
275 276 194 186 249 281 289 295 178 151 311 346 354 354 6 348 331 317 322 154 118 110 136 116 274 214 216 256 302 327 323 325 340 359 307 285 150 50 131 155 242 218 232 278 41
228 307 22 297 250 236 271 328 342 136 175 95 355 314 304 324 352 359 14 1 54 162 99 128 225 290 296 306 313 314 310 308 312 293 303 285 296 186 204 195 205 319 44 69 44
10 357 343 295 311 317 24 352 304 359 16 86 36 6 37 50 36 357 11 17 30 339 335 318 267 249 277 286 303 317 319 318 307 301 287 311 10 50 89 103 91 111 47 70 59
11 328 285 284 311 318 2 30 37 25 37 59 51 13 45 14 351 327 308 300 295 308 303 311 321 352 286 323 316 317 300 300 296 301 78 78 106 68 44 63 20 71 68 79 79